Flag for Argentina Weather past 2 weeks in Corrientes, Corrientes, Argentina

Now
75 °F

Clear.


Feels Like: 78 °F
Forecast: N/A
Wind: 9 mph from Southeast

Location: Resistencia Aero.

Current Time: Oct 20, 2014 at 8:23:20 PM

Latest Report: Oct 20, 2014 at 8:00 PM


Visibility: 10 mi

Pressure: 30.01 "Hg

Humidity: 50%

Dew point: 55 °F

Location of CorrientesLocation

Historic Weather in Corrientes — Graph

°F

Corrientes temperature yesterday

Maximum temperature yesterday: 81 °F (at 1:00 PM)
Minimum temperature yesterday: 68 °F (at 10:00 PM)
Average temperature yesterday: 73 °F

Past Weeks' High & Low Weather Summary

 TemperatureHumidityPressure
High111 °F (Oct 16, 2:00 PM)100% (Oct 7, 2:00 AM)30.09 "Hg (Oct 7, 2:00 AM)
Low59 °F (Oct 10, 9:00 PM)18% (Oct 16, 3:00 PM)29.50 "Hg (Oct 18, 5:00 PM)
Average78 °F71%29.83 "Hg
* Reported Oct 5 7:00 PM — Oct 20 7:00 PM, Corrientes, Weather by CustomWeather, © 2014

Note: Actual official high and low records may vary slightly from our data, if they occured in-between our weather recording intervals... More about our weather records

Advertising

Corrientes weather history for previous 24 hours

 ConditionsComfort  
Time TempWeatherWind HumidityBarometerVisibility
7:00 PM
Oct 20
79 °FClear.5 mph45%30.01 "Hg10 mi
6:00 PM82 °FSunny.8 mph51%30.01 "Hg10 mi
5:00 PM84 °FPartly sunny.7 mph45%30.01 "HgN/A
4:00 PM86 °FPartly sunny.7 mph46%30.01 "HgN/A
3:00 PM86 °FBroken clouds.9 mph46%30.04 "HgN/A
2:00 PM84 °FBroken clouds.9 mph48%30.04 "HgN/A
1:00 PM84 °FPartly sunny.8 mph48%30.07 "HgN/A
12:00 PM84 °FPartly sunny.8 mph48%30.07 "HgN/A
11:00 AM81 °FSunny.9 mph54%30.09 "Hg10 mi
10:00 AM77 °FSunny.8 mph57%30.07 "Hg10 mi
9:00 AM73 °FSunny.10 mph61%30.07 "Hg10 mi
8:00 AM70 °FSunny.10 mph78%30.04 "Hg10 mi
7:00 AM68 °FSunny.6 mph88%30.04 "Hg10 mi
6:00 AM66 °FPartly sunny.3 mph100%30.01 "HgN/A
5:00 AM68 °FPassing clouds.3 mph94%30.01 "HgN/A
4:00 AM70 °FPassing clouds.2 mph94%30.01 "HgN/A
12:00 AM68 °FClear.2 mph94%30.01 "Hg10 mi
11:00 PM
Oct 19
68 °FClear.2 mph94%29.98 "Hg10 mi
10:00 PM68 °FClear.2 mph100%29.98 "Hg10 mi
9:00 PM70 °FPassing clouds.3 mph94%29.98 "HgN/A
8:00 PM70 °FPartly cloudy.3 mph94%29.92 "HgN/A
Weather by CustomWeather, © 2014

See weather overviewHow to use our weather pages